User: anonymous   Login
Location: Mentone
(34.5413°N, 85.5351°W)
Time: 09:08:28
(UTC-06:00)
Language:

Cosmos 1703 - Orbit

View from above orbital plane
View from above orbital plane
View from above satellite
View from above satellite

Ground track
Ground track

The orbit data is extracted from the following two-line orbital elements,

1 16262U 85108A   14352.87057359  .00006387  00000-0  42413-3 0  5861
2 16262 082.4922 062.8941 0011688 189.5609 170.5398 15.07008260581442
Epoch (UTC): 18 December 2014 20:53:37
Eccentricity: 0.0011688
inclination: 82.4922°
perigee height: 537 km
apogee height: 553 km
right ascension of ascending node: 62.8941°
argument of perigee: 189.5609°
revolutions per day: 15.07008260
mean anomaly at epoch: 170.5398°
orbit number at epoch: 58144

The dashed part of the orbit path shows where the satellite is in the earth's shadow,  

DLR